QPF
0.00 0.00 0.00 0.00 0.00 0.00 0.00 0.00 0.00 0.00 0.02 0.05 0.02 0.06 0.03 0.02 0.00 0.01 0.09 0.23 0.39 0.19 0.01 0.00 0.00 0.00 0.00 0.00 0.11 0.10 0.00 0.00 0.00 0.00 0.00 0.00 0.00 0.00 0.00 0.00 0.00 0.00 0.00 0.00 0.00 0.00 0.00 0.00 0.00 0.00 0.00 0.00 0.00 0.00
0.00 0.00 0.00 0.00 0.00 0.00 0.00 0.00 0.02 0.02 0.02 0.07 0.04 0.06 0.04 0.02 0.01 0.03 0.11 0.08 0.23 0.47 0.05 0.00 0.00 0.00 0.00 0.00 0.00 0.01 0.00 0.00 0.00 0.00 0.00 0.01 0.00 0.00 0.00 0.00 0.00 0.00 0.00 0.00 0.00 0.00 0.00 0.00 0.00 0.00 0.00 0.00 0.00 0.00
0.00 0.00 0.00 0.00 0.00 0.00 0.00 0.02 0.07 0.05 0.02 0.08 0.06 0.07 0.04 0.02 0.02 0.04 0.11 0.15 0.21 0.08 0.03 0.00 0.00 0.00 0.00 0.00 0.00 0.00 0.00 0.00 0.00 0.00 0.00 0.00 0.00 0.00 0.00 0.00 0.00 0.00 0.00 0.00 0.00 0.00 0.00 0.00 0.00 0.00 0.00 0.00 0.00 0.00
0.00 0.01 0.03 0.04 0.03 0.03 0.03 0.06 0.11 0.06 0.04 0.08 0.07 0.05 0.03 0.02 0.02 0.06 0.06 0.12 0.23 0.13 0.07 0.01 0.00 0.00 0.00 0.00 0.00 0.00 0.00 0.00 0.00 0.00 0.00 0.00 0.00 0.00 0.00 0.00 0.00 0.00 0.00 0.00 0.00 0.00 0.00 0.00 0.00 0.00 0.00 0.00 0.00 0.00
0.03 0.05 0.11 0.14 0.09 0.05 0.04 0.06 0.08 0.05 0.07 0.05 0.05 0.04 0.03 0.01 0.05 0.07 0.10 0.16 0.20 0.14 0.03 0.00 0.00 0.00 0.00 0.00 0.00 0.00 0.00 0.00 0.00 0.00 0.00 0.00 0.00 0.00 0.00 0.00 0.00 0.00 0.00 0.00 0.00 0.00 0.00 0.00 0.00 0.00 0.00 0.00 0.00 0.00
0.05 0.07 0.10 0.13 0.08 0.04 0.04 0.04 0.06 0.07 0.04 0.04 0.04 0.03 0.02 0.02 0.12 0.15 0.14 0.05 0.10 0.09 0.01 0.01 0.00 0.00 0.00 0.00 0.00 0.00 0.00 0.00 0.00 0.00 0.00 0.00 0.00 0.00 0.00 0.00 0.00 0.00 0.00 0.00 0.00 0.00 0.00 0.00 0.00 0.00 0.00 0.00 0.00 0.00
0.13 0.09 0.06 0.06 0.03 0.03 0.02 0.02 0.03 0.02 0.02 0.03 0.02 0.02 0.01 0.08 0.17 0.27 0.07 0.02 0.04 0.05 0.05 0.03 0.02 0.00 0.00 0.00 0.00 0.00 0.00 0.00 0.00 0.00 0.00 0.00 0.00 0.00 0.00 0.00 0.00 0.00 0.00 0.00 0.00 0.00 0.00 0.00 0.00 0.00 0.00 0.00 0.00 0.00
0.22 0.13 0.06 0.04 0.03 0.02 0.01 0.01 0.01 0.01 0.01 0.01 0.01 0.01 0.03 0.21 0.10 0.11 0.02 0.01 0.01 0.01 0.02 0.04 0.02 0.01 0.00 0.00 0.00 0.00 0.00 0.00 0.00 0.00 0.00 0.00 0.00 0.00 0.00 0.00 0.00 0.00 0.00 0.00 0.00 0.00 0.00 0.00 0.00 0.00 0.00 0.00 0.00 0.00
0.06 0.05 0.07 0.07 0.07 0.07 0.07 0.05 0.02 0.02 0.02 0.01 0.00 0.01 0.13 0.19 0.12 0.05 0.00 0.01 0.01 0.02 0.02 0.01 0.02 0.01 0.00 0.01 0.01 0.00 0.00 0.00 0.00 0.00 0.00 0.00 0.00 0.00 0.00 0.00 0.00 0.00 0.00 0.00 0.00 0.00 0.00 0.00 0.00 0.00 0.00 0.00 0.00 0.00
0.02 0.01 0.02 0.04 0.06 0.09 0.10 0.07 0.04 0.02 0.02 0.01 0.01 0.08 0.27 0.11 0.01 0.00 0.01 0.01 0.01 0.00 0.00 0.00 0.01 0.01 0.02 0.02 0.02 0.02 0.01 0.01 0.00 0.00 0.00 0.00 0.00 0.00 0.00 0.00 0.00 0.00 0.00 0.00 0.00 0.00 0.00 0.00 0.00 0.00 0.00 0.00 0.00 0.00
0.03 0.02 0.00 0.01 0.02 0.03 0.03 0.03 0.03 0.02 0.02 0.04 0.05 0.06 0.05 0.01 0.01 0.01 0.00 0.01 0.01 0.00 0.00 0.00 0.00 0.00 0.01 0.04 0.03 0.01 0.00 0.00 0.00 0.00 0.00 0.00 0.00 0.00 0.00 0.00 0.00 0.00 0.00 0.00 0.00 0.00 0.00 0.00 0.00 0.00 0.00 0.00 0.00 0.00
0.08 0.03 0.00 0.01 0.02 0.01 0.01 0.01 0.01 0.01 0.02 0.02 0.00 0.00 0.00 0.01 0.01 0.01 0.00 0.00 0.00 0.00 0.00 0.00 0.00 0.00 0.00 0.00 0.00 0.00 0.00 0.00 0.00 0.00 0.00 0.00 0.00 0.00 0.00 0.00 0.00 0.00 0.00 0.00 0.00 0.00 0.00 0.00 0.00 0.00 0.00 0.00 0.00 0.00
0.06 0.03 0.01 0.02 0.01 0.01 0.01 0.00 0.00 0.00 0.00 0.00 0.00 0.01 0.01 0.02 0.01 0.00 0.00 0.00 0.00 0.00 0.00 0.00 0.00 0.00 0.00 0.00 0.00 0.00 0.00 0.00 0.00 0.00 0.00 0.00 0.00 0.00 0.00 0.00 0.00 0.00 0.00 0.00 0.00 0.00 0.00 0.00 0.00 0.00 0.00 0.00 0.00 0.00
0.00 0.00 0.02 0.03 0.02 0.01 0.00 0.00 0.00 0.00 0.00 0.00 0.01 0.00 0.01 0.01 0.00 0.00 0.00 0.00 0.00 0.00 0.00 0.00 0.00 0.00 0.00 0.00 0.00 0.00 0.00 0.00 0.00 0.00 0.00 0.00 0.00 0.00 0.00 0.00 0.00 0.00 0.00 0.00 0.00 0.00 0.00 0.00 0.00 0.00 0.00 0.00 0.00 0.00
0.00 0.00 0.00 0.03 0.02 0.01 0.00 0.00 0.00 0.00 0.00 0.00 0.00 0.00 0.00 0.00 0.00 0.00 0.00 0.00 0.00 0.00 0.00 0.00 0.00 0.00 0.00 0.00 0.00 0.00 0.00 0.00 0.00 0.00 0.00 0.00 0.00 0.00 0.00 0.00 0.00 0.00 0.00 0.00 0.00 0.00 0.00 0.00 0.00 0.00 0.00 0.00 0.00 0.00
0.00 0.01 0.03 0.02 0.02 0.02 0.00 0.00 0.00 0.00 0.02 0.01 0.00 0.00 0.00 0.00 0.00 0.00 0.00 0.00 0.00 0.00 0.00 0.00 0.00 0.00 0.00 0.00 0.00 0.00 0.00 0.01 0.00 0.00 0.00 0.00 0.00 0.00 0.00 0.00 0.00 0.00 0.00 0.00 0.00 0.00 0.00 0.00 0.00 0.00 0.00 0.00 0.00 0.00
0.01 0.02 0.04 0.03 0.01 0.01 0.00 0.01 0.02 0.06 0.05 0.01 0.01 0.00 0.00 0.00 0.00 0.00 0.00 0.00 0.00 0.00 0.00 0.00 0.00 0.00 0.00 0.00 0.00 0.00 0.01 0.00 0.00 0.00 0.00 0.00 0.00 0.00 0.00 0.00 0.00 0.00 0.00 0.00 0.00 0.00 0.00 0.00 0.00 0.00 0.00 0.00 0.00 0.00
0.02 0.01 0.00 0.00 0.00 0.00 0.00 0.01 0.03 0.05 0.05 0.03 0.03 0.04 0.02 0.01 0.01 0.00 0.00 0.00 0.00 0.00 0.00 0.00 0.00 0.00 0.01 0.01 0.01 0.00 0.00 0.00 0.00 0.00 0.00 0.00 0.00 0.00 0.00 0.00 0.00 0.00 0.00 0.00 0.00 0.00 0.00 0.00 0.00 0.00 0.00 0.00 0.00 0.00
0.00 0.00 0.00 0.00 0.00 0.00 0.00 0.00 0.00 0.01 0.04 0.05 0.05 0.05 0.03 0.03 0.02 0.01 0.00 0.00 0.00 0.00 0.00 0.00 0.01 0.01 0.02 0.02 0.02 0.00 0.00 0.00 0.00 0.00 0.00 0.00 0.00 0.00 0.00 0.00 0.00 0.00 0.00 0.00 0.00 0.00 0.00 0.00 0.00 0.00 0.00 0.00 0.00 0.00
0.00 0.00 0.00 0.00 0.00 0.00 0.00 0.00 0.00 0.00 0.02 0.03 0.03 0.03 0.02 0.02 0.01 0.00 0.00 0.00 0.00 0.00 0.00 0.01 0.03 0.03 0.02 0.02 0.01 0.00 0.00 0.00 0.00 0.00 0.00 0.00 0.01 0.01 0.01 0.01 0.00 0.00 0.00 0.00 0.00 0.00 0.00 0.00 0.00 0.00 0.00 0.00 0.00 0.00
0.00 0.00 0.00 0.00 0.00 0.00 0.00 0.00 0.00 0.00 0.01 0.01 0.01 0.00 0.00 0.00 0.00 0.00 0.00 0.00 0.00 0.00 0.02 0.03 0.03 0.01 0.00 0.01 0.01 0.01 0.00 0.00 0.00 0.00 0.00 0.00 0.00 0.00 0.00 0.00 0.00 0.00 0.00 0.00 0.00 0.00 0.00 0.00 0.00 0.00 0.00 0.00 0.00 0.00
0.00 0.00 0.00 0.00 0.00 0.00 0.00 0.00 0.00 0.00 0.00 0.01 0.00 0.00 0.00 0.01 0.01 0.00 0.00 0.00 0.01 0.03 0.03 0.02 0.03 0.02 0.00 0.01 0.01 0.01 0.00 0.00 0.00 0.00 0.01 0.00 0.00 0.00 0.00 0.00 0.00 0.00 0.00 0.00 0.00 0.00 0.00 0.00 0.00 0.00 0.00 0.00 0.00 0.00
0.00 0.00 0.00 0.00 0.00 0.00 0.00 0.00 0.00 0.00 0.00 0.00 0.00 0.00 0.00 0.01 0.00 0.00 0.01 0.01 0.01 0.02 0.02 0.01 0.01 0.01 0.01 0.00 0.00 0.01 0.02 0.01 0.02 0.03 0.03 0.02 0.01 0.01 0.00 0.00 0.00 0.00 0.00 0.00 0.00 0.00 0.00 0.00 0.00 0.00 0.00 0.00 0.00 0.00
0.00 0.00 0.00 0.00 0.00 0.00 0.00 0.00 0.00 0.00 0.00 0.00 0.00 0.00 0.00 0.00 0.00 0.01 0.01 0.02 0.02 0.01 0.01 0.01 0.02 0.02 0.01 0.01 0.02 0.03 0.04 0.03 0.04 0.04 0.04 0.02 0.01 0.01 0.00 0.00 0.00 0.00 0.00 0.00 0.00 0.00 0.00 0.00 0.00 0.00 0.00 0.00 0.00 0.00
0.00 0.00 0.00 0.00 0.00 0.00 0.00 0.00 0.00 0.00 0.00 0.00 0.01 0.01 0.00 0.00 0.01 0.01 0.01 0.02 0.01 0.01 0.01 0.01 0.01 0.01 0.01 0.01 0.02 0.02 0.03 0.04 0.04 0.04 0.04 0.02 0.02 0.01 0.00 0.00 0.00 0.00 0.00 0.00 0.00 0.00 0.00 0.00 0.00 0.00 0.00 0.00 0.00 0.00
0.00 0.00 0.00 0.00 0.00 0.00 0.00 0.00 0.00 0.00 0.00 0.01 0.00 0.00 0.00 0.01 0.01 0.01 0.01 0.02 0.01 0.01 0.01 0.01 0.02 0.01 0.01 0.01 0.02 0.02 0.03 0.03 0.03 0.02 0.02 0.01 0.01 0.01 0.00 0.00 0.00 0.00 0.00 0.00 0.00 0.00 0.00 0.00 0.00 0.00 0.00 0.00 0.00 0.00
0.00 0.00 0.00 0.00 0.00 0.00 0.00 0.00 0.00 0.00 0.01 0.01 0.01 0.01 0.01 0.01 0.01 0.01 0.01 0.01 0.01 0.01 0.01 0.01 0.00 0.00 0.01 0.01 0.01 0.01 0.01 0.01 0.01 0.01 0.00 0.00 0.00 0.00 0.00 0.00 0.00 0.00 0.00 0.00 0.00 0.00 0.00 0.00 0.00 0.00 0.00 0.00 0.00 0.00
0.00 0.00 0.00 0.00 0.00 0.00 0.00 0.01 0.01 0.01 0.01 0.00 0.01 0.00 0.01 0.01 0.01 0.01 0.02 0.01 0.01 0.00 0.00 0.00 0.00 0.00 0.00 0.01 0.01 0.01 0.00 0.00 0.00 0.00 0.00 0.00 0.00 0.00 0.00 0.00 0.00 0.00 0.00 0.00 0.00 0.00 0.00 0.00 0.00 0.00 0.00 0.00 0.00 0.00
0.00 0.00 0.00 0.00 0.00 0.00 0.00 0.01 0.01 0.00 0.00 0.00 0.01 0.01 0.01 0.01 0.02 0.02 0.01 0.01 0.01 0.01 0.01 0.01 0.01 0.01 0.00 0.00 0.00 0.00 0.00 0.00 0.00 0.00 0.00 0.00 0.00 0.01 0.00 0.00 0.00 0.00 0.00 0.00 0.00 0.00 0.00 0.00 0.00 0.00 0.00 0.00 0.00 0.00
0.00 0.00 0.00 0.00 0.00 0.01 0.01 0.01 0.01 0.01 0.00 0.00 0.00 0.00 0.00 0.01 0.02 0.01 0.01 0.01 0.01 0.01 0.01 0.01 0.01 0.00 0.00 0.00 0.00 0.00 0.00 0.00 0.00 0.00 0.00 0.00 0.00 0.00 0.00 0.00 0.00 0.00 0.00 0.00 0.00 0.00 0.00 0.00 0.00 0.00 0.00 0.00 0.00 0.00
0.00 0.00 0.00 0.00 0.01 0.01 0.01 0.01 0.01 0.00 0.00 0.00 0.00 0.00 0.01 0.01 0.01 0.01 0.01 0.01 0.01 0.01 0.01 0.00 0.00 0.00 0.00 0.00 0.00 0.00 0.00 0.00 0.00 0.00 0.00 0.00 0.00 0.00 0.00 0.00 0.00 0.00 0.00 0.00 0.00 0.00 0.00 0.00 0.00 0.00 0.00 0.00 0.00 0.00
0.00 0.00 0.00 0.01 0.01 0.00 0.00 0.02 0.03 0.02 0.01 0.01 0.01 0.00 0.01 0.01 0.01 0.01 0.00 0.01 0.01 0.00 0.00 0.00 0.00 0.00 0.00 0.00 0.00 0.00 0.00 0.00 0.00 0.00 0.00 0.00 0.00 0.00 0.00 0.00 0.00 0.00 0.00 0.00 0.00 0.00 0.00 0.00 0.00 0.00 0.00 0.00 0.00 0.00
0.00 0.00 0.00 0.00 0.00 0.01 0.00 0.00 0.00 0.00 0.01 0.01 0.01 0.01 0.01 0.01 0.01 0.01 0.01 0.00 0.00 0.00 0.00 0.00 0.00 0.00 0.00 0.00 0.00 0.00 0.00 0.00 0.00 0.00 0.00 0.00 0.00 0.00 0.00 0.00 0.00 0.00 0.00 0.00 0.00 0.00 0.00 0.00 0.00 0.00 0.00 0.00 0.00 0.00
MSLP
986.95 988.62 990.16 991.53 992.78 993.99 995.15 996.26 997.30 998.40 999.38 1000.40 1001.37 1002.22 1003.21 1003.94 1004.71 1005.71 1005.42 1005.44 1005.39 1002.91 999.94 998.62 999.16 999.85 999.94 1000.72 1002.83 1005.01 1004.58 1004.03 1004.35 1005.13 1005.76 1006.69 1007.18 1006.79 1006.59 1006.80 1007.89 1008.68 1009.34 1010.09 1010.23 1010.40 1009.32 1007.99 1008.25 1008.57 1009.13 1009.12 1009.36 1009.49
988.12 989.45 990.70 991.83 993.03 994.08 995.09 996.15 997.27 998.18 999.13 1000.04 1000.91 1001.69 1002.66 1003.89 1004.71 1005.55 1004.96 1004.59 1004.51 1004.48 1000.26 999.96 1000.58 1000.09 1000.72 1000.85 1001.04 1003.38 1002.48 1002.93 1003.53 1004.11 1005.50 1006.80 1007.64 1007.71 1007.40 1006.93 1006.57 1007.15 1007.53 1008.24 1008.76 1008.66 1008.42 1008.18 1008.65 1009.20 1009.55 1009.97 1010.31 1010.58
989.04 989.99 990.96 992.01 993.04 993.96 994.95 996.12 997.14 997.86 998.85 999.59 1000.48 1001.10 1002.21 1003.15 1004.12 1004.60 1003.82 1003.59 1002.46 1001.38 1000.17 1000.07 1000.63 1001.63 1001.59 1001.64 1001.26 1002.07 1002.28 1002.13 1002.61 1003.12 1005.40 1007.08 1007.75 1007.50 1007.67 1006.95 1006.51 1006.71 1007.34 1007.77 1008.21 1007.71 1008.12 1008.64 1009.58 1010.41 1010.88 1011.23 1011.32 1011.43
989.74 990.52 991.37 992.32 993.27 994.13 994.99 995.87 996.82 997.61 998.64 999.79 1000.27 1001.34 1001.89 1002.86 1003.81 1004.42 1004.43 1003.61 1002.71 1001.34 1001.24 1001.89 1001.86 1001.95 1001.91 1001.52 1001.54 1001.71 1001.47 1002.11 1002.87 1003.99 1005.81 1007.34 1007.59 1006.96 1007.47 1006.88 1006.62 1007.02 1007.40 1007.79 1008.14 1008.23 1009.06 1010.06 1011.10 1011.76 1011.94 1012.26 1012.42 1012.68
990.18 990.93 991.60 992.45 993.38 994.15 994.87 995.79 996.46 997.10 997.99 998.75 999.63 1000.65 1001.72 1002.67 1003.23 1003.97 1004.00 1002.97 1003.15 1003.57 1002.47 1003.17 1002.84 1002.66 1002.14 1002.13 1002.31 1002.34 1002.34 1002.74 1003.68 1005.15 1006.53 1007.04 1007.16 1007.63 1008.12 1007.79 1007.43 1007.33 1007.76 1008.37 1008.96 1009.89 1010.40 1011.79 1012.51 1012.75 1013.16 1013.66 1013.90 1014.34
990.41 991.25 991.66 992.16 992.84 993.88 994.89 995.69 996.21 996.98 997.91 998.94 999.85 1000.69 1001.28 1002.24 1003.79 1004.94 1003.99 1002.96 1003.21 1002.65 1002.19 1003.63 1004.22 1003.70 1003.00 1002.77 1002.93 1003.07 1003.20 1003.34 1003.99 1005.66 1006.85 1007.25 1007.72 1007.84 1008.54 1008.41 1008.42 1008.76 1009.14 1009.55 1009.98 1010.88 1011.82 1013.01 1013.77 1014.27 1014.84 1015.50 1016.10 1016.65
990.72 991.40 992.04 991.90 992.56 993.48 994.32 995.17 996.12 997.07 997.92 998.71 999.63 1000.94 1002.09 1002.65 1003.59 1003.24 1003.21 1003.19 1002.63 1001.99 1002.40 1004.36 1004.98 1005.07 1004.40 1004.09 1004.31 1004.39 1004.19 1004.66 1005.06 1006.53 1007.76 1008.02 1008.38 1008.47 1009.14 1008.78 1009.36 1009.89 1010.29 1010.91 1011.48 1011.89 1012.86 1013.50 1015.04 1015.95 1016.66 1017.37 1017.81 1018.22
990.96 991.31 991.61 992.05 992.87 993.83 994.78 995.52 996.19 997.24 998.60 999.69 1000.67 1001.48 1002.30 1002.94 1002.89 1002.58 1002.82 1002.62 1003.19 1002.50 1003.05 1004.66 1005.58 1005.84 1005.58 1005.31 1005.89 1005.86 1005.75 1006.13 1007.17 1008.25 1008.87 1008.95 1009.39 1009.49 1009.62 1009.92 1010.34 1010.98 1011.35 1011.99 1012.62 1012.94 1013.79 1015.06 1016.25 1017.19 1017.78 1018.22 1018.56 1019.14
991.44 991.60 991.99 992.55 993.19 994.11 995.09 996.06 996.95 997.84 998.81 999.81 1000.90 1001.87 1002.59 1002.24 1002.77 1003.31 1003.32 1002.89 1002.76 1003.56 1004.44 1005.71 1005.90 1006.33 1006.22 1006.66 1007.01 1007.25 1006.95 1007.94 1008.59 1008.94 1009.27 1009.41 1010.38 1010.62 1010.61 1011.01 1011.44 1012.05 1012.25 1013.12 1013.94 1014.54 1015.26 1016.09 1017.09 1017.86 1018.37 1018.95 1019.28 1019.53
992.67 992.55 992.70 993.20 993.87 994.73 995.57 996.37 997.13 998.03 998.98 1000.06 1000.81 1001.56 1002.18 1002.84 1002.94 1003.15 1003.19 1003.55 1003.40 1004.88 1005.63 1006.34 1006.48 1006.95 1007.10 1007.30 1007.99 1008.32 1008.46 1008.67 1009.17 1009.95 1009.96 1010.30 1011.57 1012.18 1012.42 1012.51 1012.90 1013.07 1013.49 1014.11 1014.83 1015.79 1016.52 1017.12 1017.80 1018.38 1018.76 1019.32 1019.83 1020.33
994.55 994.29 994.33 994.69 995.12 995.69 996.22 996.83 997.59 998.48 999.43 998.75 999.61 1001.43 1002.86 1003.28 1003.11 1003.41 1004.08 1004.52 1005.18 1006.36 1006.86 1006.74 1006.63 1006.95 1007.60 1007.66 1008.47 1008.99 1009.17 1009.39 1009.79 1010.29 1010.52 1011.45 1012.14 1012.96 1013.37 1013.49 1013.52 1013.93 1014.55 1015.08 1015.60 1016.60 1017.12 1017.69 1018.26 1018.92 1019.59 1020.29 1020.87 1021.54
996.56 996.37 996.36 996.57 996.69 996.76 997.10 997.69 998.06 998.08 998.62 998.61 999.53 1001.57 1002.60 1003.00 1003.68 1005.12 1006.03 1006.60 1006.78 1007.59 1007.74 1007.56 1007.31 1007.71 1008.12 1007.66 1008.57 1009.32 1009.66 1009.93 1010.18 1010.79 1011.27 1011.93 1012.98 1013.46 1013.94 1014.14 1014.40 1014.88 1015.47 1016.00 1016.52 1017.15 1017.80 1018.34 1018.93 1019.62 1020.52 1021.24 1021.87 1022.58
997.81 997.63 997.65 997.63 997.99 998.38 998.30 998.30 998.19 998.42 998.62 998.80 1000.36 1002.48 1003.18 1004.94 1005.42 1006.20 1007.01 1007.48 1007.90 1008.17 1008.09 1007.99 1008.19 1008.46 1008.60 1008.64 1009.34 1009.82 1010.23 1010.47 1010.51 1011.32 1011.80 1012.76 1013.58 1014.20 1014.50 1014.87 1015.37 1015.78 1016.28 1016.89 1017.53 1018.18 1019.01 1019.80 1020.44 1021.11 1021.78 1022.27 1022.49 1023.16
999.16 999.02 998.77 999.22 999.32 998.74 998.88 998.85 998.77 998.70 999.14 1001.15 1003.23 1005.27 1006.26 1007.46 1007.97 1008.19 1008.27 1008.40 1009.02 1008.76 1008.47 1008.57 1008.56 1008.85 1009.22 1009.58 1010.04 1010.48 1011.46 1011.22 1011.54 1012.05 1012.48 1013.60 1014.26 1014.73 1015.19 1015.70 1016.27 1016.89 1017.44 1017.80 1018.61 1019.60 1020.35 1020.98 1021.67 1022.32 1022.92 1023.27 1023.68 1024.15
1000.34 1000.33 1000.03 1000.57 1000.64 1000.44 999.63 999.65 999.31 999.65 1001.91 1004.51 1006.03 1007.77 1008.72 1009.48 1009.58 1009.54 1009.48 1009.49 1009.61 1009.24 1008.91 1008.69 1008.85 1009.21 1009.85 1010.32 1010.71 1011.48 1011.98 1011.87 1011.94 1012.47 1013.36 1014.16 1014.86 1015.22 1015.77 1016.38 1017.11 1017.77 1018.41 1018.99 1019.77 1020.51 1021.10 1021.65 1022.20 1022.86 1023.46 1023.90 1024.48 1024.94
1000.64 1000.25 1002.07 1002.36 1001.88 1000.87 1000.35 1000.38 1001.02 1002.50 1005.26 1007.01 1008.37 1009.39 1009.95 1010.17 1010.29 1010.25 1010.39 1010.49 1010.34 1009.76 1009.12 1008.75 1009.21 1009.93 1010.60 1010.88 1011.24 1011.49 1011.90 1012.13 1012.96 1013.66 1014.35 1014.96 1015.51 1015.91 1016.30 1017.11 1017.91 1018.38 1018.88 1019.68 1020.50 1021.12 1021.69 1022.12 1022.56 1023.27 1023.90 1024.32 1024.62 1024.93
1001.57 1003.56 1003.54 1002.73 1002.19 1001.73 1001.38 1002.49 1004.30 1006.42 1008.11 1009.10 1010.13 1010.45 1010.42 1010.71 1011.08 1011.34 1011.33 1011.27 1010.87 1010.22 1009.85 1009.44 1009.79 1010.78 1011.25 1011.56 1012.10 1012.39 1013.09 1013.66 1014.18 1014.79 1015.35 1015.78 1016.24 1016.60 1017.12 1017.85 1018.44 1018.95 1019.57 1020.29 1020.92 1021.50 1022.14 1022.74 1023.16 1023.51 1023.86 1024.35 1024.58 1024.95
1003.89 1004.31 1003.78 1003.06 1002.54 1002.65 1003.72 1004.79 1006.77 1008.51 1009.82 1010.73 1011.12 1011.58 1011.65 1011.79 1011.95 1012.11 1012.05 1011.56 1011.07 1010.76 1010.41 1010.62 1010.86 1011.58 1012.22 1012.78 1013.40 1014.05 1014.57 1015.07 1015.38 1015.79 1016.22 1016.73 1017.01 1017.42 1017.99 1018.49 1019.07 1019.67 1020.28 1020.89 1021.51 1022.11 1022.61 1022.95 1023.23 1023.76 1024.27 1024.86 1024.91 1025.28
1004.97 1004.48 1003.86 1003.50 1003.26 1004.02 1005.74 1007.27 1007.68 1009.55 1011.16 1011.58 1012.01 1012.20 1012.41 1012.70 1012.80 1012.67 1012.31 1011.84 1011.38 1010.96 1011.09 1011.55 1012.54 1013.72 1014.58 1015.16 1015.23 1015.26 1015.65 1016.12 1016.58 1017.03 1017.44 1017.82 1018.19 1018.57 1019.01 1019.50 1020.04 1020.52 1021.12 1021.57 1022.00 1022.58 1023.40 1023.84 1024.36 1024.77 1025.33 1025.53 1025.65 1025.96
1005.20 1004.98 1004.67 1004.20 1003.67 1005.30 1007.38 1008.67 1008.74 1010.03 1011.38 1012.36 1012.47 1012.58 1012.82 1013.15 1013.29 1013.08 1012.72 1012.35 1012.16 1012.30 1013.73 1014.97 1016.24 1016.90 1016.94 1016.96 1016.73 1016.44 1016.49 1017.04 1017.39 1017.87 1018.51 1019.00 1019.30 1019.57 1020.01 1020.32 1020.77 1021.45 1022.16 1022.78 1023.23 1023.40 1023.76 1024.46 1025.22 1025.73 1026.24 1026.26 1026.40 1026.76
1005.40 1005.76 1005.21 1004.86 1005.73 1007.09 1008.93 1009.64 1010.25 1011.01 1011.74 1012.38 1012.69 1012.69 1013.23 1013.37 1013.55 1013.62 1013.59 1013.66 1014.13 1015.87 1016.94 1017.83 1018.05 1018.23 1018.30 1018.28 1017.90 1017.59 1017.70 1017.42 1017.63 1017.95 1018.74 1019.51 1020.09 1020.46 1020.94 1021.36 1021.87 1022.25 1022.83 1023.42 1023.95 1024.70 1025.08 1025.64 1026.25 1026.64 1026.80 1026.90 1027.29 1027.19
1006.74 1006.47 1006.51 1006.86 1007.99 1009.30 1010.39 1011.01 1010.99 1011.34 1012.03 1012.62 1012.68 1013.06 1013.62 1013.94 1014.24 1014.64 1014.94 1015.59 1017.61 1018.78 1019.16 1019.49 1019.58 1019.39 1019.49 1019.52 1019.55 1019.28 1019.08 1018.95 1018.95 1019.14 1019.49 1020.23 1020.86 1021.46 1022.04 1022.60 1023.06 1023.64 1024.27 1024.77 1025.16 1025.70 1026.13 1026.84 1027.28 1027.41 1027.42 1027.57 1027.47 1027.26
1007.22 1007.39 1008.36 1009.20 1010.00 1011.03 1012.58 1011.78 1011.80 1011.91 1012.40 1012.90 1013.16 1013.68 1014.24 1014.60 1015.12 1015.19 1016.56 1018.46 1019.91 1020.50 1020.45 1020.60 1020.78 1020.80 1020.91 1021.11 1021.04 1021.01 1020.76 1020.66 1020.84 1021.12 1021.52 1021.97 1022.50 1023.05 1023.58 1024.08 1024.40 1024.89 1025.55 1026.10 1026.38 1026.72 1027.16 1027.55 1027.70 1027.91 1027.79 1027.82 1027.70 1027.56
1008.46 1009.89 1010.94 1011.47 1011.99 1012.89 1013.21 1013.09 1012.96 1013.04 1013.32 1013.37 1013.78 1014.51 1015.21 1015.51 1015.65 1016.28 1018.35 1020.34 1021.66 1021.86 1021.65 1021.53 1021.33 1021.52 1021.85 1022.31 1022.66 1022.90 1022.76 1022.68 1022.81 1022.96 1023.23 1023.61 1024.09 1024.78 1025.34 1025.88 1026.35 1026.65 1026.84 1027.03 1027.34 1027.60 1027.79 1028.03 1028.18 1028.14 1028.19 1028.26 1028.02 1027.98
1010.47 1013.30 1013.20 1013.42 1013.48 1013.50 1013.74 1013.98 1013.96 1013.91 1014.35 1014.44 1014.79 1015.50 1016.15 1016.21 1016.70 1018.18 1019.98 1021.74 1022.88 1023.34 1023.37 1022.97 1022.87 1022.85 1023.09 1023.70 1024.22 1024.52 1024.57 1024.37 1024.46 1024.75 1025.10 1025.31 1025.57 1025.98 1026.42 1026.94 1027.41 1027.84 1028.01 1028.02 1028.21 1028.34 1028.43 1028.54 1028.58 1028.61 1028.66 1028.53 1028.36 1028.27
1013.30 1015.11 1015.11 1015.12 1015.05 1014.66 1014.78 1014.96 1015.17 1015.31 1015.33 1015.62 1016.42 1016.89 1016.98 1017.27 1018.56 1020.46 1022.29 1023.62 1024.39 1024.91 1025.04 1024.69 1024.22 1024.49 1025.07 1025.41 1025.64 1025.97 1026.17 1025.98 1026.04 1026.33 1026.90 1026.85 1026.80 1026.75 1027.01 1027.33 1027.84 1028.64 1029.02 1029.15 1029.17 1029.11 1029.02 1029.05 1029.10 1029.01 1028.83 1028.64 1028.48 1028.40
1015.30 1015.96 1016.28 1016.32 1016.10 1015.89 1015.96 1016.18 1016.00 1016.11 1016.43 1016.80 1017.38 1017.59 1018.04 1019.05 1021.01 1022.99 1024.44 1025.40 1025.71 1026.24 1026.40 1026.33 1026.06 1026.05 1026.32 1026.71 1027.06 1027.29 1027.41 1027.31 1027.36 1027.69 1027.97 1028.14 1028.33 1028.48 1028.64 1028.89 1029.43 1030.15 1029.94 1029.82 1029.92 1029.93 1029.81 1029.60 1029.44 1029.28 1029.06 1028.79 1028.64 1028.63
1016.99 1017.27 1017.01 1017.04 1016.73 1016.66 1016.76 1016.97 1017.34 1018.02 1018.49 1018.82 1018.68 1019.72 1020.77 1022.17 1024.01 1025.27 1025.95 1026.51 1026.68 1026.88 1027.15 1027.36 1027.50 1027.54 1027.64 1027.76 1027.83 1027.83 1027.82 1028.12 1028.21 1028.29 1028.50 1028.65 1028.91 1029.29 1029.55 1029.73 1030.16 1030.35 1030.34 1030.27 1030.36 1030.17 1030.08 1029.95 1029.87 1029.60 1029.31 1029.14 1029.08 1028.90
1017.79 1017.89 1017.51 1017.64 1017.50 1018.01 1018.59 1018.74 1019.42 1020.35 1020.81 1020.29 1020.45 1022.23 1023.96 1025.65 1026.79 1026.86 1027.13 1027.19 1027.21 1027.27 1027.44 1027.71 1027.92 1028.14 1028.40 1028.69 1028.95 1029.06 1029.23 1029.07 1028.71 1028.79 1028.85 1029.00 1029.18 1029.69 1029.98 1030.09 1030.05 1030.11 1030.12 1030.17 1030.13 1030.03 1029.82 1029.83 1029.70 1029.56 1029.45 1029.29 1029.16 1028.91
1018.61 1018.39 1018.10 1018.41 1018.72 1019.47 1020.43 1020.72 1021.35 1022.02 1022.07 1022.23 1023.06 1024.70 1026.04 1027.31 1028.24 1028.37 1028.26 1028.24 1028.26 1028.49 1028.77 1028.85 1028.94 1028.89 1028.93 1028.98 1029.39 1029.90 1030.43 1030.67 1030.74 1030.66 1030.44 1030.46 1030.61 1030.62 1030.49 1030.36 1030.40 1030.40 1030.36 1030.27 1030.14 1029.97 1029.83 1029.60 1029.53 1029.23 1028.94 1028.85 1028.72 1028.73
1019.33 1018.98 1019.07 1019.49 1020.19 1021.03 1021.33 1021.62 1022.12 1022.56 1023.08 1023.61 1024.00 1024.86 1026.27 1027.84 1029.05 1029.66 1029.71 1029.48 1029.42 1029.35 1029.31 1029.57 1029.97 1030.16 1030.28 1030.44 1030.50 1030.61 1030.75 1031.10 1031.39 1031.51 1031.72 1031.54 1031.28 1031.03 1030.76 1030.69 1030.60 1030.53 1030.41 1030.32 1030.22 1030.09 1029.88 1029.61 1029.41 1029.25 1029.07 1028.94 1028.91 1028.92
1020.07 1020.16 1019.95 1020.08 1020.86 1021.66 1021.66 1021.66 1021.91 1022.36 1023.25 1024.07 1025.00 1025.79 1026.60 1027.07 1028.57 1030.19 1030.99 1030.37 1030.16 1030.29 1030.64 1030.58 1030.65 1031.13 1031.48 1031.42 1031.39 1031.46 1031.78 1031.66 1031.60 1031.94 1031.95 1031.97 1031.87 1031.66 1031.41 1031.22 1031.01 1030.63 1030.35 1030.34 1030.23 1030.02 1029.81 1029.57 1029.37 1029.26 1029.21 1029.08 1029.11 1029.29
1020.73 1020.89 1020.99 1020.98 1021.26 1021.55 1022.20 1022.18 1022.19 1023.15 1023.92 1024.75 1025.84 1026.41 1027.26 1028.00 1029.42 1030.79 1031.57 1031.73 1031.72 1031.70 1031.72 1031.73 1031.75 1031.75 1031.85 1031.86 1031.95 1031.90 1031.88 1031.71 1031.92 1031.89 1031.83 1031.99 1032.25 1032.18 1032.05 1031.56 1031.34 1031.08 1030.80 1030.58 1030.44 1030.18 1029.78 1029.50 1029.32 1029.25 1029.30 1029.40 1029.47 1029.51
Thickness
5379 5373 5367 5362 5357 5354 5355 5357 5360 5362 5367 5374 5390 5408 5431 5452 5472 5487 5513 5524 5533 5563 5592 5608 5619 5613 5622 5618 5586 5580 5597 5610 5615 5604 5605 5611 5600 5617 5619 5622 5598 5589 5588 5572 5587 5565 5569 5625 5615 5602 5605 5610 5607 5605
5373 5366 5361 5357 5354 5353 5355 5355 5355 5359 5366 5379 5400 5418 5437 5455 5471 5487 5509 5524 5535 5544 5572 5587 5590 5606 5607 5614 5614 5597 5620 5621 5624 5619 5610 5609 5588 5585 5606 5602 5629 5605 5613 5602 5599 5593 5614 5617 5609 5608 5605 5597 5592 5588
5369 5364 5361 5358 5357 5357 5358 5355 5357 5365 5374 5395 5414 5434 5447 5467 5481 5499 5521 5533 5544 5562 5568 5582 5587 5591 5602 5607 5616 5609 5617 5631 5631 5638 5616 5605 5582 5607 5581 5605 5614 5620 5617 5605 5603 5614 5610 5607 5599 5592 5586 5580 5579 5576
5378 5374 5371 5368 5366 5367 5369 5370 5373 5382 5392 5407 5428 5442 5459 5475 5487 5498 5510 5526 5542 5563 5559 5567 5579 5584 5595 5605 5612 5619 5627 5631 5629 5623 5605 5580 5586 5618 5600 5612 5610 5610 5610 5602 5602 5605 5596 5586 5578 5573 5570 5567 5562 5558
5401 5396 5392 5388 5386 5388 5392 5396 5403 5413 5426 5437 5450 5460 5475 5486 5500 5508 5522 5537 5541 5544 5550 5552 5569 5577 5589 5594 5600 5608 5614 5615 5612 5599 5577 5594 5604 5598 5593 5597 5596 5607 5600 5587 5583 5582 5577 5562 5558 5558 5552 5545 5542 5535
5428 5422 5422 5421 5422 5423 5425 5429 5435 5442 5448 5458 5468 5476 5488 5498 5499 5502 5521 5532 5538 5546 5557 5544 5554 5563 5577 5586 5591 5596 5603 5608 5607 5592 5588 5597 5595 5595 5575 5585 5590 5587 5584 5580 5574 5569 5560 5548 5541 5534 5527 5519 5510 5501
5449 5447 5446 5450 5451 5450 5451 5454 5455 5459 5466 5475 5482 5486 5491 5498 5505 5525 5533 5534 5539 5550 5550 5535 5539 5548 5562 5571 5575 5581 5591 5592 5597 5586 5576 5583 5584 5586 5564 5579 5577 5571 5568 5562 5556 5553 5542 5539 5519 5510 5500 5490 5484 5477
5473 5471 5471 5471 5470 5470 5469 5472 5477 5478 5478 5481 5485 5491 5497 5504 5514 5526 5528 5533 5534 5547 5547 5529 5523 5539 5548 5554 5554 5566 5572 5577 5571 5562 5564 5567 5567 5567 5567 5566 5562 5555 5552 5546 5540 5535 5526 5512 5498 5487 5480 5474 5468 5458
5489 5491 5491 5491 5490 5488 5487 5486 5487 5489 5491 5493 5494 5497 5501 5514 5522 5519 5522 5530 5539 5537 5532 5514 5530 5535 5542 5541 5542 5551 5561 5548 5555 5552 5557 5561 5548 5554 5556 5550 5545 5537 5537 5527 5517 5511 5503 5492 5479 5471 5465 5457 5451 5448
5496 5500 5502 5502 5502 5501 5500 5500 5501 5501 5500 5500 5506 5510 5507 5510 5513 5518 5527 5528 5532 5521 5522 5517 5527 5529 5534 5533 5532 5537 5537 5542 5546 5539 5547 5542 5527 5529 5525 5527 5521 5521 5516 5507 5497 5484 5476 5470 5463 5458 5454 5446 5438 5431
5492 5498 5502 5503 5503 5505 5506 5507 5507 5506 5505 5521 5517 5505 5503 5505 5518 5522 5511 5521 5521 5509 5511 5520 5527 5528 5526 5529 5522 5528 5529 5534 5534 5535 5537 5528 5528 5510 5509 5508 5509 5504 5495 5488 5482 5470 5466 5458 5451 5442 5434 5424 5416 5406
5486 5490 5494 5497 5500 5504 5506 5506 5509 5516 5520 5525 5523 5512 5511 5516 5516 5500 5496 5499 5505 5504 5499 5511 5517 5518 5515 5533 5524 5523 5518 5524 5525 5522 5516 5524 5501 5497 5493 5492 5489 5483 5475 5469 5465 5458 5450 5444 5437 5427 5415 5404 5394 5383
5484 5488 5490 5494 5497 5498 5502 5507 5513 5516 5519 5525 5517 5497 5512 5490 5503 5503 5501 5502 5499 5493 5496 5504 5503 5506 5510 5516 5507 5508 5508 5516 5519 5507 5516 5501 5486 5482 5481 5477 5471 5466 5460 5452 5446 5439 5428 5417 5408 5399 5389 5381 5375 5366
5479 5484 5489 5489 5492 5501 5503 5507 5512 5517 5518 5504 5491 5482 5485 5483 5475 5480 5487 5488 5477 5483 5493 5493 5495 5500 5499 5494 5497 5499 5484 5498 5497 5501 5507 5477 5470 5468 5465 5460 5452 5444 5434 5433 5425 5412 5401 5392 5382 5372 5363 5357 5350 5344
5475 5478 5484 5482 5486 5492 5501 5504 5511 5513 5497 5478 5472 5466 5459 5452 5455 5459 5464 5470 5470 5481 5490 5495 5495 5496 5487 5487 5488 5479 5481 5493 5500 5501 5476 5461 5454 5454 5448 5441 5431 5421 5414 5410 5401 5389 5381 5374 5367 5357 5348 5341 5331 5321
5474 5482 5470 5471 5478 5491 5498 5500 5500 5492 5470 5457 5450 5453 5448 5456 5457 5457 5459 5461 5464 5474 5486 5498 5488 5483 5480 5481 5486 5491 5494 5498 5477 5460 5447 5442 5439 5437 5435 5422 5413 5409 5404 5392 5382 5373 5364 5357 5350 5341 5331 5322 5314 5306
5467 5453 5458 5469 5478 5485 5491 5485 5473 5456 5447 5445 5441 5437 5445 5446 5447 5446 5448 5452 5457 5469 5476 5485 5482 5472 5472 5473 5471 5467 5464 5453 5443 5434 5429 5425 5421 5420 5413 5404 5395 5391 5385 5375 5366 5358 5348 5339 5331 5326 5319 5307 5302 5294
5448 5448 5455 5464 5472 5476 5471 5466 5452 5441 5435 5431 5434 5431 5430 5432 5437 5437 5439 5444 5453 5458 5467 5465 5471 5465 5466 5467 5456 5440 5431 5424 5420 5417 5413 5409 5407 5403 5396 5390 5382 5373 5363 5354 5346 5337 5329 5323 5319 5309 5299 5288 5282 5273
5440 5447 5454 5460 5465 5463 5452 5442 5447 5429 5421 5420 5420 5421 5423 5422 5423 5427 5432 5439 5446 5453 5457 5456 5448 5441 5430 5417 5419 5416 5411 5407 5401 5395 5391 5386 5382 5377 5371 5364 5357 5350 5342 5335 5329 5320 5307 5300 5292 5284 5273 5266 5258 5250
5436 5440 5445 5452 5459 5449 5433 5427 5434 5425 5416 5411 5412 5415 5415 5415 5414 5417 5423 5431 5434 5435 5415 5405 5393 5388 5390 5391 5392 5397 5397 5389 5384 5378 5370 5364 5358 5354 5348 5344 5338 5329 5319 5309 5302 5298 5292 5282 5268 5259 5248 5244 5236 5227
5434 5433 5440 5446 5440 5433 5419 5417 5414 5411 5406 5403 5404 5411 5406 5408 5407 5407 5411 5414 5407 5388 5383 5376 5375 5372 5371 5370 5373 5374 5372 5378 5375 5372 5360 5349 5343 5337 5331 5324 5316 5310 5302 5293 5284 5271 5264 5255 5245 5236 5230 5224 5215 5211
5417 5422 5425 5424 5417 5408 5403 5400 5405 5404 5400 5396 5402 5402 5396 5396 5394 5390 5393 5386 5365 5357 5355 5351 5351 5354 5351 5349 5347 5349 5349 5349 5348 5344 5341 5333 5325 5317 5308 5299 5291 5281 5272 5264 5257 5248 5240 5228 5219 5215 5211 5205 5201 5197
5408 5409 5402 5398 5395 5388 5375 5389 5387 5393 5388 5388 5391 5386 5381 5380 5376 5382 5366 5350 5337 5333 5334 5333 5330 5330 5328 5325 5324 5323 5324 5323 5319 5314 5307 5301 5294 5287 5279 5271 5265 5257 5246 5237 5231 5224 5217 5209 5204 5198 5196 5190 5185 5180
5393 5381 5375 5375 5374 5363 5364 5366 5372 5374 5372 5375 5375 5366 5360 5361 5365 5361 5338 5323 5311 5312 5314 5316 5317 5315 5311 5304 5298 5295 5296 5294 5289 5285 5280 5273 5265 5256 5248 5239 5231 5225 5221 5216 5210 5205 5200 5194 5188 5184 5178 5171 5167 5160
5375 5351 5357 5359 5360 5362 5360 5357 5357 5361 5355 5359 5359 5352 5344 5350 5349 5337 5321 5305 5292 5287 5287 5293 5293 5293 5290 5281 5274 5268 5265 5265 5261 5255 5248 5244 5238 5231 5225 5217 5210 5204 5199 5196 5191 5186 5181 5176 5170 5164 5158 5153 5148 5142
5344 5329 5335 5335 5337 5345 5346 5343 5339 5338 5343 5343 5332 5330 5334 5338 5327 5307 5290 5277 5267 5263 5261 5264 5269 5264 5254 5250 5246 5240 5236 5235 5231 5224 5216 5215 5214 5213 5211 5207 5202 5186 5179 5174 5169 5165 5161 5156 5150 5144 5140 5136 5131 5125
5325 5322 5320 5320 5322 5327 5328 5327 5332 5333 5330 5328 5323 5325 5327 5320 5296 5272 5256 5247 5244 5238 5236 5235 5236 5234 5229 5223 5218 5214 5211 5210 5207 5203 5198 5195 5191 5187 5182 5179 5172 5163 5159 5154 5148 5142 5138 5134 5130 5125 5121 5117 5112 5104
5305 5303 5307 5309 5312 5317 5315 5316 5314 5306 5302 5299 5306 5294 5291 5276 5256 5240 5233 5227 5225 5222 5218 5214 5212 5211 5209 5206 5204 5202 5200 5196 5192 5189 5185 5181 5176 5168 5162 5158 5150 5144 5139 5135 5128 5123 5118 5113 5108 5104 5101 5095 5088 5083
5292 5292 5300 5291 5302 5294 5288 5291 5284 5272 5267 5278 5286 5267 5246 5227 5218 5219 5217 5216 5215 5214 5211 5208 5204 5200 5195 5191 5187 5183 5179 5178 5180 5176 5175 5170 5165 5153 5143 5138 5133 5128 5123 5117 5112 5107 5102 5095 5090 5084 5079 5073 5067 5063
5280 5284 5289 5286 5284 5276 5265 5264 5256 5250 5251 5252 5244 5229 5217 5208 5202 5201 5201 5200 5199 5195 5191 5189 5186 5185 5182 5180 5173 5165 5157 5151 5147 5145 5144 5139 5133 5128 5124 5120 5114 5108 5103 5098 5093 5087 5082 5077 5070 5066 5063 5058 5054 5049
5272 5277 5277 5272 5264 5254 5252 5251 5245 5241 5237 5232 5231 5224 5210 5197 5187 5182 5181 5181 5180 5179 5177 5172 5165 5161 5157 5152 5149 5147 5143 5133 5127 5121 5115 5113 5110 5107 5104 5099 5093 5088 5083 5077 5071 5065 5060 5056 5052 5048 5044 5041 5037 5033
5261 5259 5264 5263 5254 5243 5244 5245 5244 5242 5232 5224 5214 5208 5202 5202 5186 5169 5160 5163 5163 5159 5152 5151 5147 5139 5133 5130 5127 5123 5115 5113 5110 5104 5099 5093 5089 5085 5081 5076 5071 5066 5062 5056 5050 5046 5042 5038 5034 5030 5026 5022 5018 5013
5252 5249 5248 5248 5245 5241 5231 5233 5235 5222 5216 5207 5196 5192 5183 5180 5165 5152 5143 5140 5137 5135 5131 5128 5124 5121 5117 5113 5109 5105 5102 5098 5092 5087 5082 5075 5068 5062 5057 5053 5048 5043 5039 5035 5030 5026 5023 5020 5016 5012 5007 5002 4999 4995